When you browse on this site, cookies collect data to enhance your experience and personalize the content and advertising you see.
Visit our Privacy Policy to learn more. By continuing to use the site, you agree to this use of cookies and data.
  • In Spain
  • List of Countries
  • For 7 days
  • Water Temperature
  • Weather Map
  • Weather Widgets
  • user-avatar
    Login

    Hourly Weather Welwyn Garden City

    Today, 24 February, Monday

    Time Temperature Precipitation Wind Pressure Humidity
    00:00 +7°C° 0 mm 1 mps 759 mmHg 76%
    01:00 +6°C° 0.2 mm 2 mps 758 mmHg 79%
    02:00 +5°C° 0.2 mm 3 mps 757 mmHg 81%
    03:00 +5°C° 0.2 mm 4 mps 756 mmHg 84%
    04:00 +5°C° 0.2 mm 5 mps 755 mmHg 87%
    05:00 +6°C° 0.2 mm 5 mps 753 mmHg 91%
    06:00 +5°C° 0 mm 6 mps 752 mmHg 87%
    07:00 +6°C° 0 mm 7 mps 751 mmHg 86%
    08:00 +7°C° 0 mm 8 mps 750 mmHg 86%
    09:00 +8°C° 0 mm 10 mps 748 mmHg 85%
    10:00 +8°C° 0.7 mm 10 mps 748 mmHg 86%
    11:00 +8°C° 0.7 mm 10 mps 747 mmHg 88%
    12:00 +9°C° 0 mm 8 mps 746 mmHg 88%
    13:00 +8°C° 0.3 mm 9 mps 746 mmHg 87%
    14:00 +10°C° 0.3 mm 9 mps 745 mmHg 86%
    15:00 +9°C° 0.3 mm 10 mps 745 mmHg 86%
    16:00 +9°C° 0 mm 10 mps 745 mmHg 84%
    17:00 +8°C° 0 mm 9 mps 745 mmHg 82%
    18:00 +8°C° 0 mm 9 mps 744 mmHg 81%
    19:00 +7°C° 0 mm 8 mps 745 mmHg 79%
    20:00 +6°C° 0 mm 8 mps 745 mmHg 77%
    21:00 +5°C° 0 mm 7 mps 745 mmHg 76%
    22:00 +4°C° 0 mm 7 mps 745 mmHg 77%
    23:00 +3°C° 0 mm 7 mps 746 mmHg 77%

    Tomorrow, 25 February, Tuesday

    Time Temperature Precipitation Wind Pressure Humidity
    00:00 +3°C° 0 mm 7 mps 746 mmHg 78%
    01:00 +2°C° 0 mm 6 mps 746 mmHg 79%
    02:00 +2°C° 0 mm 6 mps 745 mmHg 80%
    03:00 +1°C° 0 mm 6 mps 745 mmHg 80%
    04:00 +1°C° 0 mm 6 mps 745 mmHg 80%
    05:00 +1°C° 0 mm 6 mps 744 mmHg 80%
    06:00 +1°C° 0 mm 5 mps 744 mmHg 80%
    07:00 +2°C° 0 mm 6 mps 744 mmHg 80%
    08:00 +2°C° 0 mm 7 mps 743 mmHg 79%
    09:00 +2°C° 0 mm 8 mps 743 mmHg 79%
    10:00 +4°C° 0 mm 8 mps 743 mmHg 73%
    11:00 +4°C° 0 mm 7 mps 742 mmHg 67%
    12:00 +5°C° 0 mm 7 mps 742 mmHg 61%
    13:00 +5°C° 0.3 mm 7 mps 741 mmHg 64%
    14:00 +5°C° 0.3 mm 7 mps 741 mmHg 66%
    15:00 +4°C° 0.3 mm 7 mps 740 mmHg 69%
    16:00 +3°C° 0.5 mm 7 mps 739 mmHg 75%
    17:00 +2°C° 0.5 mm 7 mps 739 mmHg 80%
    18:00 0°C° 0.5 mm 7 mps 738 mmHg 86%
    19:00 -1°C° 0.3 mm 8 mps 738 mmHg 83%
    20:00 -1°C° 0.3 mm 8 mps 738 mmHg 81%
    21:00 -1°C° 0.3 mm 8 mps 738 mmHg 78%
    22:00 -2°C° 0 mm 8 mps 738 mmHg 80%
    23:00 -2°C° 0 mm 8 mps 738 mmHg 81%

    Day after tomorrow, 26 February, Wednesday

    Time Temperature Precipitation Wind Pressure Humidity
    00:00 -2°C° 0 mm 8 mps 739 mmHg 83%
    01:00 -2°C° 0 mm 8 mps 739 mmHg 82%
    02:00 -2°C° 0 mm 8 mps 739 mmHg 81%
    03:00 -2°C° 0 mm 7 mps 739 mmHg 80%
    04:00 -2°C° 0 mm 7 mps 740 mmHg 82%
    05:00 -3°C° 0 mm 6 mps 740 mmHg 84%
    06:00 -3°C° 0 mm 6 mps 741 mmHg 85%
    07:00 -2°C° 0 mm 6 mps 742 mmHg 82%
    08:00 -1°C° 0 mm 7 mps 742 mmHg 78%
    09:00 0°C° 0 mm 7 mps 743 mmHg 75%
    10:00 +1°C° 0 mm 8 mps 744 mmHg 72%
    11:00 +2°C° 0 mm 8 mps 745 mmHg 69%
    12:00 +4°C° 0 mm 8 mps 746 mmHg 66%
    13:00 +4°C° 0.2 mm 8 mps 746 mmHg 64%
    14:00 +4°C° 0.2 mm 8 mps 747 mmHg 63%
    15:00 +4°C° 0.2 mm 8 mps 747 mmHg 61%
    16:00 +3°C° 0 mm 7 mps 747 mmHg 64%
    17:00 +2°C° 0 mm 6 mps 748 mmHg 67%
    18:00 +1°C° 0 mm 5 mps 748 mmHg 70%
    19:00 0°C° 0 mm 5 mps 748 mmHg 72%
    20:00 0°C° 0 mm 5 mps 748 mmHg 74%
    21:00 0°C° 0 mm 4 mps 748 mmHg 76%
    22:00 0°C° 0 mm 4 mps 747 mmHg 77%
    23:00 0°C° 0 mm 4 mps 747 mmHg 79%

    27 February, Thursday

    Time Temperature Precipitation Wind Pressure Humidity
    00:00 0°C° 0 mm 4 mps 746 mmHg 80%
    01:00 0°C° 0.1 mm 4 mps 746 mmHg 83%
    02:00 +1°C° 0.1 mm 3 mps 745 mmHg 87%
    03:00 +1°C° 0.1 mm 3 mps 744 mmHg 90%
    04:00 +2°C° 0.5 mm 2 mps 743 mmHg 92%
    05:00 +3°C° 0.5 mm 1 mps 742 mmHg 94%
    06:00 +2°C° 0.5 mm 0 mps 742 mmHg 97%
    07:00 +3°C° 0.5 mm 1 mps 741 mmHg 97%
    08:00 +1°C° 0.5 mm 2 mps 741 mmHg 97%
    09:00 +1°C° 0.5 mm 2 mps 741 mmHg 97%
    10:00 +1°C° 0.2 mm 3 mps 742 mmHg 95%
    11:00 0°C° 0.2 mm 4 mps 742 mmHg 93%
    12:00 0°C° 0.2 mm 5 mps 743 mmHg 91%
    13:00 +1°C° 0 mm 5 mps 744 mmHg 85%
    14:00 +2°C° 0 mm 6 mps 744 mmHg 79%
    15:00 +3°C° 0 mm 6 mps 745 mmHg 73%
    16:00 +2°C° 0 mm 6 mps 746 mmHg 75%
    17:00 +1°C° 0 mm 5 mps 747 mmHg 76%
    18:00 0°C° 0 mm 5 mps 748 mmHg 77%
    19:00 0°C° 0 mm 4 mps 749 mmHg 79%
    20:00 -1°C° 0 mm 4 mps 750 mmHg 81%
    21:00 -1°C° 0 mm 4 mps 751 mmHg 82%
    22:00 -1°C° 0 mm 4 mps 751 mmHg 83%
    23:00 -1°C° 0 mm 3 mps 752 mmHg 85%

    28 February, Friday

    Time Temperature Precipitation Wind Pressure Humidity
    00:00 -1°C° 0 mm 3 mps 752 mmHg 86%
    01:00 -1°C° 0 mm 3 mps 752 mmHg 86%
    02:00 -1°C° 0 mm 2 mps 752 mmHg 85%
    03:00 -1°C° 0 mm 2 mps 752 mmHg 85%
    04:00 +1°C° 0 mm 2 mps 752 mmHg 84%
    05:00 +1°C° 0 mm 2 mps 752 mmHg 83%
    06:00 0°C° 0 mm 3 mps 751 mmHg 82%
    07:00 +1°C° 0.1 mm 3 mps 751 mmHg 82%
    08:00 0°C° 0.1 mm 4 mps 750 mmHg 82%
    09:00 +1°C° 0.1 mm 5 mps 749 mmHg 81%
    10:00 +1°C° 1 mm 6 mps 748 mmHg 86%
    11:00 0°C° 1 mm 7 mps 747 mmHg 91%
    12:00 0°C° 1 mm 8 mps 746 mmHg 96%
    13:00 0°C° 0.5 mm 7 mps 745 mmHg 95%
    14:00 +2°C° 0.5 mm 7 mps 744 mmHg 94%
    15:00 +2°C° 0.5 mm 7 mps 742 mmHg 93%
    16:00 +3°C° 0.1 mm 6 mps 741 mmHg 94%
    17:00 +5°C° 0.1 mm 5 mps 741 mmHg 96%
    18:00 +6°C° 0.1 mm 4 mps 740 mmHg 97%
    19:00 +6°C° 0.1 mm 4 mps 739 mmHg 96%
    20:00 +7°C° 0.1 mm 5 mps 739 mmHg 96%
    21:00 +7°C° 0.1 mm 5 mps 738 mmHg 95%
    22:00 +7°C° 1.5 mm 6 mps 736 mmHg 95%
    23:00 +8°C° 1.5 mm 7 mps 734 mmHg 94%

    29 February, Saturday

    Time Temperature Precipitation Wind Pressure Humidity
    00:00 +7°C° 1.5 mm 8 mps 733 mmHg 94%
    01:00 +7°C° 1 mm 9 mps 731 mmHg 92%
    02:00 +7°C° 1 mm 9 mps 729 mmHg 89%
    03:00 +7°C° 1 mm 10 mps 728 mmHg 87%
    04:00 +5°C° 0.8 mm 10 mps 728 mmHg 84%
    05:00 +2°C° 0.8 mm 10 mps 729 mmHg 81%
    06:00 0°C° 0.8 mm 10 mps 730 mmHg 77%
    07:00 0°C° 0 mm 10 mps 731 mmHg 75%
    08:00 0°C° 0 mm 10 mps 732 mmHg 72%
    09:00 0°C° 0 mm 9 mps 733 mmHg 69%
    10:00 +1°C° 0.1 mm 9 mps 733 mmHg 68%
    11:00 +1°C° 0.1 mm 9 mps 733 mmHg 67%
    12:00 +1°C° 0.1 mm 10 mps 734 mmHg 66%
    13:00 +2°C° 0.3 mm 10 mps 734 mmHg 65%
    14:00 +2°C° 0.3 mm 10 mps 734 mmHg 63%
    15:00 +2°C° 0.3 mm 10 mps 734 mmHg 61%
    16:00 +1°C° 0.1 mm 9 mps 734 mmHg 65%
    17:00 +1°C° 0.1 mm 8 mps 735 mmHg 69%
    18:00 0°C° 0.1 mm 7 mps 735 mmHg 73%
    19:00 0°C° 0 mm 7 mps 735 mmHg 73%
    20:00 0°C° 0 mm 7 mps 736 mmHg 72%
    21:00 -1°C° 0 mm 7 mps 736 mmHg 72%
    22:00 -1°C° 0 mm 7 mps 737 mmHg 73%
    23:00 -1°C° 0 mm 6 mps 737 mmHg 74%
    Show more